STARLINK-2578 (48362 NORAD) Tracking and Keplerian Element Data

This shows tracking and keplerian element data for the satellite.

Feedback or suggestion? Click here.




ElementValue
Catalog48362
NameSTARLINK-2578
Epoch Orbit1447
Epoch Day215.06159884
Epoch Year2021
RAAN340.6875
Inclination53.056
Eccentricity0.0001116
Argument of Perigee119.3347
Mean Anonmoly240.7753
Mean Motion15.04765217
Decay Rate-7.96E-06
L11 48362U 21038K 21215.06159884 -.00000796 00000-0 -36391-4 0 9999
L22 48362 53.0560 340.6875 0001116 119.3347 240.7753 15.04765217 14476

Live tracking and technical data element details for STARLINK-2578 (NORAD 48362). STARLINK-2578 can be tracked NOW for your location showing map with azimuth and elevation plus other details from your city location.

Track the satellite on the map from your city or location and see movement details for azimuth, elevation, latitude, longitude, range, height, and movement on the map or in text.







IsCatalogInMostPopularTable: catalog: 48362, numindb: 31
Update: records affected: 1



GetName: 48362 STARLINK-2578

Hit Count: updated at: Tue, 03 Aug 2021 20:13:14 GMT